Location: Derby
(52.9213°N, 1.4761°W)
Time: 14:24:25
(UTC+01:00)

SR - Visible Passes

Search period start: 18 May 2025 00:00
Search period end: 28 May 2025 00:00
Orbit: 569 x 857 km, 66.7° (Epoch: 17 May)

Date Brightness Start Highest point End Pass type
(mag) Time Alt. Az. Time Alt. Az. Time Alt. Az.
18 May ? 00:59:52 20° SE 01:01:51 24° ESE 01:06:20 10° ENE visible
18 May ? 02:38:56 20° SW 02:43:06 86° NW 02:48:53 10° NE visible
19 May ? 00:06:44 11° ESE 00:08:10 12° ESE 00:10:28 10° ENE visible
19 May ? 01:45:48 27° S 01:48:51 57° ESE 01:54:29 10° NE visible
19 May ? 03:25:22 10° WSW 03:30:54 43° NW 03:36:20 10° NE visible
20 May ? 00:52:36 25° SSE 00:54:49 33° ESE 00:59:54 10° NE visible
20 May ? 02:31:40 16° SW 02:36:21 66° NW 02:42:04 10° NE visible
20 May ? 04:14:17 10° W 04:19:08 26° NNW 04:23:51 10° NE visible
20 May ? 23:59:22 16° SE 00:00:59 18° ESE 00:04:47 10° ENE visible
21 May ? 01:38:25 24° SSW 01:42:00 78° SE 01:47:45 10° NE visible
21 May ? 03:19:01 10° W 03:24:19 35° NNW 03:29:30 10° NE visible
22 May ? 00:45:06 27° S 00:47:50 45° ESE 00:53:17 10° NE visible
22 May ? 02:24:09 11° WSW 02:29:39 51° NW 02:35:13 10° NE visible
22 May ? 04:08:06 10° WNW 04:12:40 23° NNW 04:17:07 10° NE visible
22 May ? 23:51:43 20° SE 23:53:53 26° ESE 23:58:31 10° ENE visible
23 May ? 01:30:45 18° SW 01:35:11 81° NW 01:40:56 10° NE visible
23 May ? 03:12:44 10° W 03:17:46 30° NNW 03:22:40 10° NNE visible
23 May ? 22:58:14 12° SE 23:00:08 14° ESE 23:02:54 10° ENE visible
24 May ? 00:37:16 23° SSW 00:40:54 62° ESE 00:46:34 10° NE visible
24 May ? 02:17:33 10° WSW 02:23:01 41° NW 02:28:21 10° NE visible
24 May ? 04:01:54 10° WNW 04:06:14 21° NNW 04:10:26 10° NE visible
24 May ? 23:43:41 21° SSE 23:46:50 35° ESE 23:52:00 10° NE visible
25 May ? 01:22:42 10° SW 01:28:26 62° NW 01:34:05 10° NE visible
25 May ? 03:06:30 10° WNW 03:11:16 25° NNW 03:15:53 10° NE visible
25 May ? 22:49:58 14° SE 22:52:57 20° ESE 22:56:59 10° ENE visible
26 May ? 00:28:59 14° SW 00:34:02 83° SE 00:39:46 10° NE visible
26 May ? 02:11:11 10° W 02:16:25 33° NNW 02:21:30 10° NNE visible
26 May ? 03:55:39 10° NW 03:59:49 20° N 04:03:48 10° NE visible
26 May ? 23:35:04 14° S 23:39:50 49° ESE 23:45:19 10° NE visible
27 May ? 01:16:06 10° WSW 01:21:44 48° NW 01:27:13 10° NE visible
27 May ? 03:00:17 10° WNW 03:04:47 23° NNW 03:09:07 10° NE visible
27 May ? 22:41:02 10° SSE 22:45:50 28° ESE 22:50:36 10° NE visible
